When you browse on this site, cookies collect data to enhance your experience and personalize the content and advertising you see.
Visit our Privacy Policy to learn more. By continuing to use the site, you agree to this use of cookies and data.
  • In United Kingdom
  • List of Countries
  • For 7 days
  • Water Temperature
  • Satellite Maps
  • Weather Map
  • Weather Widgets
  • user-avatar
    Login

    Hourly Weather Dinagepoor

    Today, 26 March, Tuesday

    Time Temperature Precipitation Wind Pressure Humidity
    00:00 +29°C° 0 mm 1 mps 755 mmHg 30%
    01:00 +28°C° 0 mm 1 mps 755 mmHg 32%
    02:00 +28°C° 0 mm 2 mps 755 mmHg 34%
    03:00 +27°C° 0 mm 2 mps 755 mmHg 36%
    04:00 +27°C° 0 mm 2 mps 755 mmHg 38%
    05:00 +26°C° 0 mm 2 mps 755 mmHg 41%
    06:00 +25°C° 0 mm 3 mps 754 mmHg 57%
    07:00 +27°C° 0 mm 2 mps 755 mmHg 52%
    08:00 +28°C° 0 mm 2 mps 756 mmHg 47%
    09:00 +30°C° 0 mm 2 mps 756 mmHg 42%
    10:00 +31°C° 0 mm 2 mps 756 mmHg 37%
    11:00 +34°C° 0 mm 3 mps 756 mmHg 32%
    12:00 +36°C° 0 mm 3 mps 757 mmHg 26%
    13:00 +37°C° 0 mm 4 mps 757 mmHg 25%
    14:00 +37°C° 0 mm 5 mps 756 mmHg 24%
    15:00 +39°C° 0 mm 5 mps 755 mmHg 22%
    16:00 +37°C° 0 mm 5 mps 755 mmHg 24%
    17:00 +36°C° 0 mm 4 mps 755 mmHg 25%
    18:00 +35°C° 0 mm 3 mps 754 mmHg 27%
    19:00 +33°C° 0 mm 3 mps 755 mmHg 28%
    20:00 +32°C° 0 mm 4 mps 756 mmHg 30%
    21:00 +29°C° 0 mm 4 mps 756 mmHg 32%
    22:00 +29°C° 0.1 mm 4 mps 756 mmHg 34%
    23:00 +28°C° 0.1 mm 3 mps 756 mmHg 37%

    Tomorrow, 27 March, Wednesday

    Time Temperature Precipitation Wind Pressure Humidity
    00:00 +27°C° 0.1 mm 2 mps 757 mmHg 39%
    01:00 +27°C° 0.2 mm 2 mps 757 mmHg 42%
    02:00 +26°C° 0.2 mm 2 mps 756 mmHg 44%
    03:00 +26°C° 0.2 mm 1 mps 756 mmHg 47%
    04:00 +25°C° 0.1 mm 1 mps 756 mmHg 48%
    05:00 +25°C° 0.1 mm 1 mps 756 mmHg 50%
    06:00 +25°C° 0.1 mm 1 mps 756 mmHg 52%
    07:00 +27°C° 0 mm 1 mps 757 mmHg 45%
    08:00 +29°C° 0 mm 2 mps 757 mmHg 39%
    09:00 +31°C° 0 mm 2 mps 758 mmHg 33%
    10:00 +32°C° 0 mm 2 mps 758 mmHg 31%
    11:00 +35°C° 0 mm 2 mps 757 mmHg 28%
    12:00 +36°C° 0 mm 2 mps 757 mmHg 25%
    13:00 +36°C° 0 mm 3 mps 756 mmHg 24%
    14:00 +37°C° 0 mm 3 mps 755 mmHg 22%
    15:00 +37°C° 0 mm 3 mps 754 mmHg 21%
    16:00 +36°C° 0 mm 3 mps 754 mmHg 23%
    17:00 +36°C° 0 mm 2 mps 754 mmHg 24%
    18:00 +35°C° 0 mm 2 mps 754 mmHg 26%
    19:00 +33°C° 0 mm 1 mps 754 mmHg 27%
    20:00 +32°C° 0 mm 1 mps 755 mmHg 28%
    21:00 +31°C° 0 mm 1 mps 755 mmHg 30%
    22:00 +30°C° 0 mm 1 mps 755 mmHg 30%
    23:00 +30°C° 0 mm 1 mps 756 mmHg 31%

    Day after tomorrow, 28 March, Thursday

    Time Temperature Precipitation Wind Pressure Humidity
    00:00 +29°C° 0 mm 1 mps 756 mmHg 32%
    01:00 +28°C° 0 mm 1 mps 756 mmHg 33%
    02:00 +28°C° 0 mm 1 mps 755 mmHg 33%
    03:00 +27°C° 0 mm 1 mps 755 mmHg 34%
    04:00 +26°C° 0 mm 2 mps 755 mmHg 36%
    05:00 +26°C° 0 mm 2 mps 755 mmHg 39%
    06:00 +25°C° 0 mm 2 mps 756 mmHg 42%
    07:00 +27°C° 0 mm 2 mps 756 mmHg 40%
    08:00 +29°C° 0 mm 2 mps 757 mmHg 38%
    09:00 +31°C° 0 mm 2 mps 757 mmHg 36%
    10:00 +32°C° 0 mm 2 mps 757 mmHg 33%
    11:00 +35°C° 0 mm 2 mps 757 mmHg 29%
    12:00 +37°C° 0 mm 2 mps 756 mmHg 25%
    13:00 +37°C° 0 mm 1 mps 755 mmHg 23%
    14:00 +37°C° 0 mm 1 mps 754 mmHg 21%
    15:00 +39°C° 0 mm 1 mps 753 mmHg 19%
    16:00 +37°C° 0 mm 1 mps 753 mmHg 20%
    17:00 +37°C° 0 mm 1 mps 753 mmHg 21%
    18:00 +36°C° 0 mm 1 mps 753 mmHg 22%
    19:00 +35°C° 0 mm 1 mps 753 mmHg 22%
    20:00 +34°C° 0 mm 1 mps 754 mmHg 23%
    21:00 +33°C° 0 mm 1 mps 754 mmHg 24%
    22:00 +32°C° 0 mm 1 mps 754 mmHg 27%
    23:00 +31°C° 0 mm 2 mps 754 mmHg 30%

    29 March, Friday

    Time Temperature Precipitation Wind Pressure Humidity
    00:00 +30°C° 0 mm 2 mps 754 mmHg 33%
    01:00 +29°C° 0 mm 2 mps 753 mmHg 36%
    02:00 +29°C° 0 mm 2 mps 753 mmHg 39%
    03:00 +28°C° 0 mm 2 mps 752 mmHg 42%
    04:00 +27°C° 0 mm 2 mps 753 mmHg 43%
    05:00 +27°C° 0 mm 3 mps 753 mmHg 44%
    06:00 +26°C° 0 mm 3 mps 753 mmHg 45%
    07:00 +28°C° 0 mm 3 mps 753 mmHg 43%
    08:00 +30°C° 0 mm 3 mps 754 mmHg 42%
    09:00 +33°C° 0 mm 3 mps 755 mmHg 40%
    10:00 +34°C° 0 mm 3 mps 754 mmHg 36%
    11:00 +36°C° 0 mm 3 mps 754 mmHg 33%
    12:00 +38°C° 0 mm 3 mps 754 mmHg 29%
    13:00 +39°C° 0 mm 2 mps 753 mmHg 26%
    14:00 +39°C° 0 mm 2 mps 752 mmHg 24%
    15:00 +40°C° 0 mm 1 mps 751 mmHg 21%
    16:00 +39°C° 0 mm 1 mps 751 mmHg 23%
    17:00 +38°C° 0 mm 2 mps 751 mmHg 24%
    18:00 +37°C° 0 mm 2 mps 751 mmHg 26%
    19:00 +36°C° 0 mm 2 mps 751 mmHg 31%
    20:00 +34°C° 0 mm 3 mps 752 mmHg 36%
    21:00 +33°C° 0 mm 3 mps 752 mmHg 41%
    22:00 +33°C° 0 mm 3 mps 753 mmHg 42%
    23:00 +32°C° 0 mm 4 mps 753 mmHg 44%

    30 March, Saturday

    Time Temperature Precipitation Wind Pressure Humidity
    00:00 +32°C° 0 mm 4 mps 753 mmHg 45%
    01:00 +30°C° 0 mm 3 mps 752 mmHg 49%
    02:00 +29°C° 0 mm 3 mps 752 mmHg 52%
    03:00 +28°C° 0 mm 3 mps 751 mmHg 56%
    04:00 +28°C° 0 mm 3 mps 751 mmHg 60%
    05:00 +27°C° 0 mm 3 mps 752 mmHg 64%
    06:00 +27°C° 0 mm 3 mps 752 mmHg 67%
    07:00 +28°C° 0 mm 4 mps 752 mmHg 64%
    08:00 +30°C° 0 mm 4 mps 753 mmHg 61%
    09:00 +32°C° 0 mm 4 mps 754 mmHg 58%
    10:00 +34°C° 0 mm 4 mps 754 mmHg 53%
    11:00 +35°C° 0 mm 4 mps 753 mmHg 47%
    12:00 +37°C° 0 mm 4 mps 753 mmHg 41%
    13:00 +38°C° 0 mm 3 mps 752 mmHg 37%
    14:00 +38°C° 0 mm 2 mps 751 mmHg 33%
    15:00 +39°C° 0 mm 2 mps 750 mmHg 29%
    16:00 +38°C° 0 mm 2 mps 750 mmHg 30%
    17:00 +37°C° 0 mm 1 mps 750 mmHg 31%
    18:00 +36°C° 0 mm 1 mps 750 mmHg 32%
    19:00 +36°C° 0 mm 2 mps 751 mmHg 35%
    20:00 +35°C° 0 mm 2 mps 752 mmHg 38%
    21:00 +34°C° 0 mm 3 mps 752 mmHg 41%
    22:00 +34°C° 0 mm 3 mps 752 mmHg 44%
    23:00 +33°C° 0 mm 3 mps 752 mmHg 47%

    31 March, Sunday

    Time Temperature Precipitation Wind Pressure Humidity
    00:00 +31°C° 0 mm 3 mps 752 mmHg 50%
    01:00 +30°C° 0.7 mm 3 mps 752 mmHg 56%
    02:00 +29°C° 0.7 mm 4 mps 752 mmHg 62%
    03:00 +28°C° 0.7 mm 4 mps 751 mmHg 68%
    04:00 +28°C° 0.9 mm 4 mps 752 mmHg 73%
    05:00 +27°C° 0.9 mm 4 mps 752 mmHg 78%
    06:00 +27°C° 0.9 mm 4 mps 752 mmHg 83%
    07:00 +28°C° 0.3 mm 5 mps 753 mmHg 79%
    08:00 +28°C° 0.3 mm 5 mps 753 mmHg 75%
    09:00 +29°C° 0.3 mm 6 mps 754 mmHg 71%
    10:00 +30°C° 0 mm 5 mps 754 mmHg 68%
    11:00 +33°C° 0 mm 5 mps 753 mmHg 64%
    12:00 +34°C° 0 mm 5 mps 753 mmHg 61%
    13:00 +34°C° 0 mm 4 mps 752 mmHg 59%
    14:00 +35°C° 0 mm 4 mps 752 mmHg 58%
    15:00 +35°C° 0 mm 4 mps 751 mmHg 57%
    16:00 +35°C° 0 mm 3 mps 751 mmHg 57%
    17:00 +35°C° 0 mm 3 mps 751 mmHg 57%
    18:00 +35°C° 0 mm 2 mps 750 mmHg 58%
    19:00 +34°C° 0.7 mm 3 mps 751 mmHg 61%
    20:00 +33°C° 0.7 mm 3 mps 752 mmHg 64%
    21:00 +32°C° 0.7 mm 4 mps 752 mmHg 67%
    22:00 +30°C° 0.5 mm 4 mps 752 mmHg 69%
    23:00 +30°C° 0.5 mm 4 mps 752 mmHg 71%
    Show more